Location: Bílinka
(49.3579°N, 14.3767°E)
Time: 13:39:53
(UTC+00:00)

CZ-4 DEB - Visible Passes

Search period start: 23 February 2024 00:00
Search period end: 04 March 2024 00:00
Orbit: 642 x 786 km, 98.0° (Epoch: 22 February)

Date Brightness Start Highest point End Pass type
(mag) Time Alt. Az. Time Alt. Az. Time Alt. Az.
23 Feb ? 17:25:23 10° SSE 17:29:46 55° ENE 17:34:21 10° N visible
23 Feb ? 19:04:54 10° SW 19:08:11 19° W 19:11:32 10° NW visible
24 Feb ? 05:23:36 10° ENE 05:25:53 13° E 05:28:10 10° ESE visible
24 Feb ? 18:11:39 10° S 18:16:05 56° W 18:20:44 10° NNW visible
25 Feb ? 17:20:03 10° SE 17:24:25 49° ENE 17:28:59 10° N visible
25 Feb ? 18:59:14 10° SW 19:02:44 22° W 19:06:22 10° NW visible
26 Feb ? 05:18:41 10° ENE 05:20:28 12° E 05:22:15 10° ESE visible
26 Feb ? 18:06:11 10° S 18:10:41 63° WSW 18:15:24 10° NNW visible
27 Feb ? 17:14:42 10° SE 17:19:03 45° ENE 17:23:35 10° N visible
27 Feb ? 18:53:34 10° SSW 18:57:17 24° W 19:01:09 10° NW visible
28 Feb ? 05:14:03 10° ENE 05:15:00 10° E 05:15:58 10° E visible
28 Feb ? 18:00:42 10° S 18:05:15 71° WSW 18:10:03 10° NNW visible
29 Feb ? 17:09:21 10° SE 17:13:39 41° ENE 17:18:09 10° N visible
29 Feb ? 18:47:54 10° SSW 18:51:48 27° W 18:55:52 10° NW visible
01 Mar ? 17:55:12 10° S 17:59:49 79° WSW 18:04:39 10° NNW visible
01 Mar ? 19:37:50 10° W 19:38:43 10° W 19:39:36 10° WNW visible
02 Mar ? 18:42:14 10° SSW 18:46:19 30° W 18:50:34 10° NNW visible
03 Mar ? 17:49:41 10° SSE 17:54:20 87° WSW 17:59:15 10° NNW visible
03 Mar ? 19:31:21 10° WSW 19:33:09 12° W 19:35:00 10° WNW visible
